QPF
0.00 0.00 0.00 0.00 0.00 0.00 0.00 0.00 0.00 0.00 0.00 0.00 0.00 0.00 0.00 0.00 0.00 0.00 0.00 0.00 0.00 0.00 0.00 0.00 0.00 0.00 0.00 0.00 0.04 0.03 0.00 0.00 0.00 0.00 0.01 0.00 0.00 0.00 0.00 0.00 0.00 0.00 0.00 0.00 0.00
0.00 0.00 0.00 0.00 0.00 0.00 0.00 0.00 0.00 0.00 0.00 0.00 0.00 0.00 0.00 0.00 0.00 0.00 0.00 0.00 0.00 0.00 0.00 0.00 0.00 0.00 0.00 0.00 0.02 0.01 0.00 0.00 0.00 0.00 0.00 0.00 0.00 0.00 0.00 0.00 0.00 0.00 0.00 0.00 0.00
0.00 0.00 0.00 0.00 0.00 0.00 0.00 0.00 0.00 0.00 0.00 0.00 0.00 0.00 0.00 0.00 0.00 0.00 0.00 0.00 0.00 0.00 0.00 0.00 0.00 0.00 0.00 0.00 0.00 0.00 0.00 0.00 0.00 0.00 0.00 0.00 0.00 0.00 0.00 0.00 0.00 0.00 0.00 0.00 0.00
0.00 0.00 0.00 0.00 0.00 0.00 0.00 0.00 0.00 0.00 0.00 0.00 0.00 0.00 0.00 0.00 0.00 0.00 0.00 0.00 0.00 0.00 0.00 0.00 0.00 0.00 0.00 0.00 0.00 0.00 0.00 0.00 0.00 0.00 0.00 0.00 0.00 0.00 0.00 0.00 0.00 0.00 0.00 0.00 0.00
0.00 0.00 0.00 0.00 0.00 0.00 0.00 0.00 0.00 0.00 0.00 0.00 0.00 0.00 0.00 0.00 0.00 0.00 0.00 0.00 0.00 0.00 0.00 0.00 0.00 0.00 0.00 0.00 0.00 0.00 0.00 0.00 0.00 0.00 0.00 0.00 0.00 0.00 0.00 0.00 0.00 0.00 0.00 0.00 0.00
0.00 0.00 0.00 0.00 0.00 0.00 0.00 0.00 0.00 0.00 0.00 0.00 0.00 0.00 0.00 0.00 0.00 0.00 0.00 0.00 0.00 0.00 0.00 0.00 0.00 0.00 0.00 0.00 0.00 0.00 0.00 0.00 0.00 0.00 0.00 0.00 0.00 0.00 0.00 0.00 0.00 0.00 0.00 0.00 0.00
0.00 0.00 0.00 0.00 0.00 0.00 0.00 0.00 0.00 0.00 0.00 0.00 0.00 0.00 0.00 0.00 0.00 0.00 0.00 0.00 0.00 0.00 0.00 0.00 0.00 0.00 0.00 0.00 0.00 0.00 0.00 0.00 0.00 0.00 0.00 0.00 0.00 0.00 0.00 0.00 0.00 0.00 0.00 0.00 0.00
0.00 0.00 0.00 0.00 0.00 0.00 0.00 0.00 0.00 0.00 0.00 0.00 0.00 0.00 0.00 0.00 0.00 0.00 0.00 0.00 0.00 0.00 0.00 0.00 0.00 0.00 0.00 0.00 0.00 0.00 0.00 0.00 0.00 0.00 0.00 0.00 0.00 0.00 0.00 0.00 0.00 0.00 0.00 0.00 0.00
0.00 0.00 0.00 0.00 0.00 0.00 0.00 0.00 0.00 0.00 0.00 0.00 0.00 0.00 0.00 0.00 0.00 0.00 0.00 0.00 0.00 0.00 0.00 0.00 0.00 0.00 0.00 0.00 0.00 0.00 0.00 0.00 0.00 0.00 0.00 0.00 0.00 0.00 0.00 0.00 0.00 0.00 0.00 0.00 0.00
0.00 0.00 0.00 0.00 0.00 0.00 0.00 0.00 0.00 0.00 0.00 0.00 0.00 0.00 0.00 0.00 0.00 0.00 0.00 0.00 0.00 0.00 0.00 0.00 0.00 0.00 0.00 0.00 0.00 0.00 0.00 0.00 0.00 0.00 0.00 0.00 0.00 0.00 0.00 0.00 0.00 0.00 0.00 0.00 0.00
0.00 0.00 0.00 0.00 0.00 0.00 0.00 0.00 0.00 0.00 0.00 0.00 0.00 0.00 0.00 0.00 0.00 0.00 0.00 0.00 0.00 0.00 0.00 0.00 0.00 0.00 0.00 0.00 0.00 0.00 0.00 0.00 0.00 0.00 0.00 0.00 0.00 0.00 0.00 0.00 0.00 0.00 0.00 0.00 0.00
0.00 0.00 0.00 0.00 0.00 0.00 0.00 0.00 0.00 0.00 0.00 0.00 0.00 0.00 0.00 0.00 0.00 0.00 0.00 0.00 0.00 0.00 0.00 0.00 0.00 0.00 0.00 0.00 0.00 0.00 0.00 0.00 0.00 0.00 0.00 0.00 0.00 0.00 0.00 0.00 0.00 0.00 0.00 0.00 0.00
0.00 0.00 0.00 0.00 0.00 0.00 0.00 0.00 0.00 0.00 0.00 0.00 0.00 0.00 0.00 0.00 0.00 0.00 0.00 0.00 0.00 0.00 0.00 0.00 0.00 0.00 0.00 0.00 0.00 0.00 0.00 0.00 0.00 0.00 0.00 0.00 0.00 0.00 0.00 0.00 0.00 0.00 0.00 0.00 0.00
0.00 0.00 0.00 0.00 0.00 0.00 0.00 0.00 0.00 0.00 0.00 0.00 0.00 0.00 0.00 0.00 0.00 0.00 0.00 0.00 0.00 0.00 0.00 0.00 0.00 0.00 0.00 0.00 0.00 0.00 0.00 0.00 0.00 0.00 0.00 0.00 0.00 0.00 0.00 0.00 0.00 0.00 0.00 0.00 0.00
0.00 0.00 0.00 0.00 0.00 0.00 0.00 0.00 0.00 0.00 0.00 0.00 0.00 0.00 0.00 0.00 0.00 0.00 0.00 0.00 0.00 0.00 0.00 0.00 0.00 0.00 0.00 0.00 0.00 0.00 0.00 0.00 0.00 0.00 0.00 0.00 0.00 0.00 0.00 0.00 0.00 0.00 0.00 0.00 0.00
0.00 0.00 0.00 0.00 0.00 0.00 0.00 0.00 0.00 0.00 0.00 0.00 0.00 0.00 0.00 0.00 0.00 0.00 0.00 0.00 0.00 0.00 0.00 0.00 0.00 0.00 0.00 0.00 0.00 0.00 0.00 0.00 0.00 0.00 0.00 0.00 0.00 0.00 0.00 0.00 0.00 0.00 0.00 0.00 0.00
0.00 0.00 0.00 0.00 0.00 0.00 0.00 0.00 0.00 0.00 0.00 0.00 0.00 0.00 0.00 0.00 0.00 0.00 0.00 0.00 0.00 0.00 0.00 0.00 0.00 0.00 0.00 0.00 0.00 0.00 0.00 0.00 0.00 0.00 0.00 0.00 0.00 0.00 0.00 0.00 0.00 0.00 0.00 0.00 0.00
0.00 0.00 0.00 0.00 0.00 0.00 0.00 0.00 0.00 0.00 0.00 0.00 0.00 0.00 0.00 0.00 0.00 0.00 0.00 0.00 0.00 0.00 0.00 0.00 0.00 0.00 0.00 0.00 0.00 0.00 0.00 0.00 0.00 0.00 0.00 0.00 0.00 0.00 0.00 0.00 0.00 0.00 0.00 0.00 0.00
0.00 0.00 0.00 0.00 0.00 0.00 0.00 0.00 0.00 0.00 0.00 0.00 0.00 0.00 0.00 0.00 0.00 0.00 0.00 0.00 0.00 0.00 0.00 0.00 0.00 0.00 0.00 0.00 0.00 0.00 0.00 0.00 0.00 0.00 0.00 0.00 0.00 0.00 0.00 0.00 0.00 0.00 0.00 0.00 0.00
0.00 0.00 0.00 0.00 0.00 0.00 0.00 0.00 0.00 0.00 0.00 0.00 0.00 0.00 0.00 0.00 0.00 0.00 0.00 0.00 0.00 0.00 0.00 0.00 0.00 0.00 0.00 0.00 0.00 0.00 0.00 0.00 0.00 0.00 0.00 0.00 0.00 0.00 0.00 0.00 0.00 0.00 0.00 0.00 0.00
0.00 0.00 0.00 0.00 0.00 0.00 0.00 0.00 0.00 0.00 0.00 0.00 0.00 0.00 0.00 0.00 0.00 0.00 0.00 0.00 0.00 0.00 0.00 0.00 0.00 0.00 0.00 0.00 0.00 0.00 0.00 0.00 0.00 0.00 0.00 0.00 0.00 0.00 0.00 0.00 0.00 0.00 0.00 0.00 0.00
0.00 0.00 0.00 0.00 0.00 0.00 0.00 0.00 0.00 0.00 0.00 0.00 0.00 0.00 0.00 0.00 0.00 0.00 0.00 0.00 0.00 0.00 0.00 0.00 0.00 0.00 0.00 0.00 0.00 0.00 0.00 0.00 0.00 0.00 0.00 0.00 0.00 0.00 0.00 0.00 0.00 0.00 0.00 0.00 0.00
0.00 0.00 0.00 0.00 0.00 0.00 0.00 0.00 0.00 0.00 0.00 0.00 0.00 0.00 0.00 0.00 0.00 0.00 0.00 0.00 0.00 0.00 0.00 0.00 0.00 0.00 0.00 0.00 0.00 0.00 0.00 0.00 0.00 0.00 0.00 0.00 0.00 0.00 0.00 0.00 0.00 0.00 0.00 0.00 0.00
0.00 0.00 0.00 0.00 0.00 0.00 0.00 0.00 0.00 0.00 0.00 0.00 0.00 0.00 0.00 0.00 0.00 0.00 0.00 0.00 0.00 0.00 0.00 0.00 0.00 0.00 0.00 0.00 0.00 0.00 0.00 0.00 0.00 0.00 0.00 0.00 0.00 0.00 0.00 0.00 0.00 0.00 0.00 0.00 0.00
0.00 0.00 0.00 0.00 0.00 0.00 0.00 0.00 0.00 0.00 0.00 0.00 0.00 0.00 0.00 0.00 0.00 0.00 0.00 0.00 0.00 0.00 0.00 0.00 0.00 0.00 0.00 0.00 0.00 0.00 0.00 0.00 0.00 0.00 0.00 0.00 0.00 0.00 0.00 0.00 0.00 0.00 0.00 0.00 0.00
0.00 0.00 0.00 0.00 0.00 0.00 0.00 0.00 0.00 0.00 0.00 0.00 0.00 0.00 0.00 0.00 0.00 0.00 0.00 0.00 0.00 0.00 0.00 0.00 0.00 0.00 0.00 0.00 0.00 0.00 0.00 0.00 0.00 0.00 0.00 0.00 0.00 0.00 0.00 0.00 0.00 0.00 0.00 0.00 0.00
0.00 0.01 0.01 0.00 0.00 0.00 0.00 0.00 0.00 0.00 0.00 0.01 0.00 0.00 0.00 0.00 0.00 0.00 0.00 0.00 0.00 0.00 0.00 0.00 0.00 0.00 0.00 0.00 0.00 0.00 0.00 0.00 0.00 0.00 0.00 0.00 0.00 0.00 0.00 0.00 0.00 0.00 0.00 0.00 0.00
MSLP
1018.41 1017.97 1017.50 1017.01 1016.47 1015.95 1015.42 1014.94 1014.54 1014.14 1013.69 1013.37 1012.93 1012.36 1011.92 1011.44 1010.82 1010.32 1008.94 1006.07 1006.42 1006.69 1007.35 1008.19 1008.59 1008.52 1008.98 1009.24 1009.18 1009.79 1010.13 1009.09 1007.71 1007.29 1006.70 1006.58 1006.91 1007.33 1007.48 1008.06 1008.63 1008.92 1009.49 1010.43 1011.75
1018.44 1017.96 1017.50 1016.97 1016.39 1015.82 1015.29 1014.75 1014.24 1013.84 1013.50 1013.08 1012.71 1012.18 1011.85 1011.43 1010.79 1008.85 1004.21 1004.65 1005.24 1006.02 1007.07 1007.64 1008.23 1008.62 1009.10 1009.02 1009.20 1009.43 1009.12 1006.91 1005.61 1005.45 1005.78 1006.28 1006.51 1006.82 1007.51 1008.25 1008.60 1008.98 1009.55 1010.85 1011.73
1018.38 1017.82 1017.29 1016.80 1016.23 1015.63 1015.07 1014.54 1013.99 1013.46 1013.11 1012.81 1012.33 1011.91 1011.64 1011.39 1010.29 1005.37 1003.23 1003.66 1004.78 1005.29 1005.95 1006.69 1007.56 1008.02 1008.46 1008.27 1008.37 1007.99 1007.10 1005.17 1004.97 1004.56 1004.42 1005.43 1006.53 1006.51 1007.12 1008.09 1007.86 1008.58 1009.65 1010.70 1011.61
1018.32 1017.72 1017.09 1016.48 1015.94 1015.42 1014.81 1014.17 1013.66 1013.15 1012.66 1012.37 1012.11 1011.52 1011.26 1011.21 1008.19 1003.40 1003.17 1002.79 1004.00 1005.11 1005.66 1006.35 1007.27 1007.82 1007.68 1007.45 1006.93 1007.04 1004.96 1004.74 1004.15 1004.07 1004.31 1004.61 1005.78 1006.34 1006.62 1006.22 1006.94 1007.72 1008.57 1009.96 1011.14
1018.18 1017.50 1016.83 1016.14 1015.50 1014.83 1014.19 1013.63 1013.14 1012.64 1012.15 1011.77 1011.64 1011.41 1010.98 1010.01 1005.71 1002.55 1002.95 1003.62 1004.37 1005.01 1005.29 1005.79 1006.65 1007.11 1007.02 1006.49 1006.48 1006.06 1003.89 1003.89 1004.09 1003.96 1003.83 1004.48 1005.12 1005.41 1006.10 1006.36 1007.48 1008.47 1009.37 1010.02 1010.64
1017.95 1017.23 1016.47 1015.67 1014.90 1014.17 1013.43 1012.73 1012.15 1011.83 1011.49 1011.17 1011.10 1011.20 1010.93 1008.19 1003.09 1002.59 1003.16 1004.02 1004.27 1004.65 1005.20 1005.66 1005.85 1006.17 1006.34 1005.93 1005.64 1004.40 1003.95 1003.43 1003.09 1003.92 1003.99 1004.51 1005.00 1005.55 1006.19 1006.53 1007.49 1008.25 1009.06 1009.89 1010.27
1017.79 1017.02 1016.18 1015.36 1014.51 1013.55 1012.57 1011.78 1011.05 1010.29 1010.23 1010.13 1010.41 1010.72 1009.79 1004.59 1002.49 1002.40 1002.82 1003.40 1003.82 1004.04 1004.64 1004.86 1005.03 1005.43 1005.48 1005.59 1004.81 1004.21 1003.95 1003.35 1002.92 1002.94 1003.80 1004.47 1005.21 1004.90 1005.20 1006.32 1007.23 1007.74 1008.63 1009.51 1009.99
1017.59 1016.83 1015.91 1015.04 1014.12 1013.12 1011.83 1010.89 1010.25 1009.42 1008.64 1008.65 1009.58 1010.02 1007.69 1003.12 1002.89 1002.85 1002.79 1003.23 1003.35 1003.71 1003.76 1003.98 1004.47 1005.14 1005.34 1005.11 1004.78 1004.53 1004.30 1003.75 1002.34 1002.93 1002.89 1003.42 1004.17 1004.64 1005.08 1006.06 1007.01 1007.81 1008.15 1009.03 1009.51
1017.27 1016.49 1015.58 1014.65 1013.66 1012.60 1011.33 1010.06 1009.28 1008.72 1008.21 1008.54 1009.37 1009.32 1005.43 1002.57 1002.59 1001.56 1002.05 1002.36 1002.75 1003.39 1003.76 1004.05 1004.77 1005.10 1005.30 1005.68 1005.77 1005.28 1004.73 1004.01 1002.99 1002.39 1002.53 1003.03 1003.46 1003.90 1004.67 1005.61 1006.56 1007.20 1007.67 1008.34 1009.14
1017.15 1016.40 1015.54 1014.50 1013.37 1012.16 1010.64 1008.96 1008.67 1008.77 1008.70 1008.71 1008.30 1008.57 1004.07 1001.88 1001.04 1000.79 1001.11 1001.59 1002.32 1003.17 1004.14 1004.31 1004.67 1004.92 1005.30 1005.61 1005.47 1005.33 1004.95 1004.02 1003.18 1002.49 1002.58 1002.85 1002.90 1003.70 1004.58 1005.30 1005.79 1006.43 1007.14 1007.81 1008.33
1017.07 1016.20 1015.35 1014.26 1012.89 1011.78 1010.38 1009.33 1009.00 1008.84 1008.18 1006.87 1006.00 1004.69 1002.69 1001.35 1000.49 1000.33 1000.53 1001.39 1001.86 1002.89 1003.94 1004.03 1004.59 1004.15 1004.57 1005.02 1004.96 1004.75 1004.46 1004.01 1003.16 1002.46 1002.63 1003.00 1003.31 1003.22 1004.02 1005.33 1005.66 1006.01 1006.43 1007.06 1007.39
1016.87 1016.00 1015.15 1014.25 1012.65 1011.59 1011.16 1010.83 1011.27 1011.49 1008.95 1005.66 1004.10 1003.17 1001.56 1001.66 1001.58 1000.12 1000.06 1000.87 1001.74 1002.49 1003.22 1003.93 1003.23 1003.59 1004.07 1004.44 1004.68 1004.61 1004.38 1003.54 1002.83 1002.70 1002.85 1002.86 1003.50 1003.67 1003.85 1003.72 1003.58 1004.51 1005.42 1005.85 1006.56
1016.77 1015.92 1015.10 1014.02 1012.37 1011.75 1012.13 1011.16 1010.91 1010.98 1009.59 1003.79 1001.65 1000.71 999.91 1000.82 1000.64 999.48 999.77 999.93 1000.86 1002.03 1002.22 1002.58 1002.58 1002.98 1003.35 1003.61 1003.90 1003.74 1003.70 1003.19 1002.97 1003.14 1002.83 1003.20 1003.79 1004.11 1004.01 1004.47 1004.64 1004.67 1004.48 1004.89 1005.25
1016.93 1015.95 1015.08 1014.40 1012.56 1012.92 1011.50 1010.69 1010.67 1010.51 1008.60 1002.95 1000.49 998.97 998.88 999.40 999.46 998.35 998.51 999.05 1000.07 1000.92 1001.84 1002.17 1001.88 1002.29 1002.48 1002.67 1002.97 1003.06 1002.68 1003.13 1003.09 1003.42 1003.53 1002.99 1004.17 1004.02 1003.94 1003.99 1004.06 1004.14 1004.32 1004.50 1004.70
1016.96 1016.04 1015.17 1015.11 1014.83 1013.78 1011.41 1010.57 1010.19 1009.88 1007.02 1000.53 999.11 998.05 998.21 998.39 997.43 997.10 997.39 998.26 998.85 999.59 1000.81 1000.60 1000.72 1001.26 1001.43 1001.20 1002.11 1002.03 1002.53 1002.98 1003.32 1003.75 1004.04 1003.78 1004.28 1003.14 1003.06 1003.60 1003.11 1002.89 1003.04 1003.40 1003.66
1016.74 1015.90 1015.10 1014.83 1014.92 1012.75 1011.89 1011.01 1010.19 1009.64 1004.85 1000.16 998.74 998.67 999.08 998.54 997.51 997.25 997.20 997.65 998.41 999.53 999.89 999.94 999.76 1000.04 1000.06 1000.74 1001.31 1001.86 1002.54 1003.28 1003.66 1004.29 1004.20 1003.22 1003.83 1002.38 1002.23 1001.27 1001.37 1001.49 1001.60 1001.85 1002.47
1016.55 1015.48 1014.50 1014.57 1013.46 1012.06 1012.07 1011.43 1010.86 1008.12 1003.06 1001.56 1000.76 1000.25 999.74 998.84 998.08 997.28 997.52 997.59 997.62 999.13 999.33 999.69 999.55 999.24 999.32 1000.45 1000.96 1001.67 1003.13 1004.55 1004.82 1004.71 1003.07 1002.65 1002.87 1001.04 999.96 999.83 999.59 999.68 999.70 1000.18 1000.81
1016.39 1014.66 1013.47 1012.86 1012.38 1012.60 1012.50 1012.17 1010.25 1005.91 1004.19 1003.19 1002.33 1001.11 1000.56 1000.00 999.19 998.25 997.79 997.97 997.90 998.20 999.12 999.59 999.64 998.89 998.47 998.75 999.88 1001.08 1001.95 1003.24 1004.14 1004.10 1003.31 1002.57 1000.66 998.52 998.39 998.03 998.06 997.99 997.90 998.72 999.45
1016.22 1014.26 1014.15 1012.73 1012.05 1012.59 1012.64 1011.62 1008.48 1006.61 1005.55 1004.59 1003.18 1002.45 1002.36 1001.85 1001.42 1000.27 999.77 998.81 998.37 998.30 998.91 999.33 998.86 997.43 997.17 997.65 998.62 1000.22 1001.06 1001.75 1003.39 1004.09 1003.55 1001.65 999.48 998.25 997.62 997.47 997.40 997.50 997.84 997.86 998.19
1016.94 1015.60 1014.45 1012.60 1012.38 1012.84 1012.87 1010.81 1008.90 1006.96 1006.21 1005.55 1005.08 1004.46 1004.23 1003.65 1002.98 1002.41 1001.60 1000.73 1000.18 999.17 998.94 998.95 998.87 997.33 996.75 997.30 997.86 998.23 999.89 1001.58 1002.91 1003.27 1002.75 1001.02 999.10 997.55 997.08 997.08 996.84 996.66 996.94 996.76 996.91
1017.08 1016.30 1013.28 1012.52 1012.47 1013.17 1013.09 1011.58 1009.44 1007.39 1007.04 1006.61 1006.09 1005.90 1005.53 1005.33 1004.78 1004.26 1003.23 1002.60 1002.04 1001.06 1000.54 999.99 999.48 998.21 997.08 996.76 996.70 997.83 998.71 999.81 1000.58 1001.30 1001.24 1000.39 997.43 996.61 996.49 996.05 996.26 995.87 995.68 995.44 995.59
1017.81 1017.13 1013.17 1012.95 1013.71 1014.19 1013.42 1012.35 1009.91 1008.64 1007.51 1007.53 1006.82 1006.63 1006.62 1006.49 1006.17 1005.53 1004.63 1004.05 1004.00 1003.35 1002.98 1002.19 1000.83 999.34 997.55 996.31 995.93 996.60 997.40 998.61 999.45 999.80 999.34 998.44 996.59 995.15 994.79 995.14 995.35 995.19 995.10 994.81 994.61
1018.22 1017.31 1014.24 1013.91 1015.40 1015.40 1014.22 1012.59 1011.35 1010.04 1009.12 1008.41 1007.73 1007.60 1007.67 1007.65 1007.45 1006.79 1005.99 1005.20 1005.34 1004.95 1004.84 1004.34 1002.54 1001.03 998.82 997.60 996.67 996.22 996.41 996.76 997.31 997.98 997.14 997.39 996.04 994.86 995.05 995.06 995.10 995.03 994.56 994.21 994.12
1018.70 1018.05 1016.48 1015.62 1015.83 1015.87 1015.23 1013.99 1012.79 1011.71 1010.41 1009.72 1008.94 1008.66 1008.88 1008.86 1008.44 1007.95 1007.16 1006.42 1006.31 1005.94 1005.59 1005.25 1004.51 1003.06 1000.96 999.22 997.42 996.57 995.70 995.36 995.78 995.70 995.63 994.85 995.78 995.07 994.73 994.70 994.45 994.40 994.26 993.72 993.56
1018.69 1018.44 1018.11 1017.27 1016.63 1016.47 1015.61 1014.58 1013.71 1013.02 1012.22 1010.82 1009.98 1010.18 1010.31 1010.07 1009.78 1009.27 1008.66 1007.77 1007.10 1006.71 1006.57 1006.45 1006.07 1004.33 1002.47 1000.78 998.21 996.91 995.22 994.37 993.71 993.48 993.54 994.41 994.71 994.72 994.29 994.25 994.16 993.72 993.82 993.85 993.90
1018.57 1018.49 1017.89 1017.44 1016.90 1016.56 1015.65 1014.86 1014.27 1013.91 1013.42 1012.25 1011.38 1011.06 1011.05 1010.93 1010.61 1010.50 1009.99 1009.53 1008.67 1007.66 1007.46 1007.24 1006.51 1005.16 1003.06 1000.63 998.37 996.17 994.25 992.41 991.16 992.22 992.87 993.28 993.59 993.05 992.99 993.17 993.38 993.23 993.18 993.36 993.28
1018.09 1017.85 1017.81 1017.11 1016.70 1016.42 1015.68 1015.12 1014.69 1014.23 1013.16 1012.77 1011.89 1011.25 1010.92 1010.73 1010.71 1010.45 1010.10 1009.69 1009.23 1008.87 1008.10 1007.85 1007.00 1005.99 1003.65 1001.35 999.10 995.74 990.68 991.55 991.25 991.03 991.39 991.78 992.45 992.39 992.68 992.83 992.70 992.42 992.37 992.41 992.33
Thickness
5732 5734 5737 5740 5743 5745 5748 5751 5753 5755 5757 5758 5761 5765 5770 5775 5781 5785 5790 5813 5812 5813 5808 5802 5798 5798 5797 5788 5794 5787 5757 5756 5774 5778 5789 5806 5793 5803 5807 5793 5795 5798 5792 5792 5787
5730 5733 5736 5739 5742 5745 5748 5751 5754 5756 5758 5760 5762 5765 5767 5771 5777 5786 5833 5828 5824 5818 5807 5797 5787 5790 5781 5784 5784 5771 5753 5784 5805 5812 5802 5804 5799 5799 5794 5789 5790 5792 5796 5790 5786
5728 5732 5735 5738 5741 5745 5748 5751 5754 5758 5759 5761 5764 5766 5767 5769 5776 5809 5838 5834 5825 5823 5815 5807 5797 5792 5779 5788 5787 5787 5776 5809 5810 5819 5823 5811 5801 5809 5796 5781 5797 5788 5787 5787 5782
5725 5729 5733 5737 5740 5744 5748 5752 5755 5758 5761 5763 5764 5768 5768 5766 5767 5829 5836 5840 5829 5820 5812 5801 5792 5781 5779 5782 5799 5782 5815 5813 5820 5823 5822 5813 5814 5801 5803 5810 5816 5809 5802 5792 5783
5722 5727 5732 5737 5740 5745 5749 5753 5757 5760 5763 5766 5766 5767 5769 5771 5794 5837 5836 5830 5825 5816 5808 5799 5788 5784 5779 5788 5795 5790 5819 5822 5820 5820 5822 5822 5811 5810 5806 5819 5815 5805 5795 5788 5787
5721 5726 5730 5736 5742 5746 5751 5757 5761 5764 5766 5768 5769 5767 5767 5770 5832 5836 5831 5824 5820 5814 5804 5801 5795 5797 5790 5793 5792 5810 5815 5819 5823 5811 5820 5809 5809 5809 5809 5818 5809 5806 5797 5789 5788
5718 5723 5729 5735 5741 5747 5754 5761 5767 5773 5774 5774 5772 5769 5770 5803 5835 5835 5831 5824 5822 5818 5804 5810 5809 5798 5799 5792 5810 5810 5801 5815 5818 5818 5811 5817 5795 5800 5821 5815 5807 5807 5801 5792 5789
5714 5720 5726 5733 5740 5747 5756 5764 5770 5777 5783 5783 5775 5770 5778 5829 5830 5827 5828 5821 5823 5821 5818 5817 5812 5801 5796 5804 5800 5799 5800 5785 5820 5816 5825 5817 5783 5809 5820 5812 5805 5804 5803 5795 5793
5713 5718 5724 5731 5739 5747 5756 5768 5774 5778 5783 5781 5774 5769 5785 5831 5824 5835 5830 5821 5820 5815 5814 5814 5802 5790 5794 5773 5763 5772 5766 5781 5797 5824 5822 5814 5797 5815 5821 5815 5807 5806 5805 5800 5795
5708 5713 5719 5726 5736 5746 5756 5771 5774 5773 5775 5775 5779 5770 5803 5817 5832 5838 5835 5830 5817 5808 5795 5792 5784 5771 5768 5760 5741 5760 5770 5785 5788 5816 5815 5806 5805 5816 5817 5814 5814 5811 5807 5803 5800
5702 5708 5714 5721 5732 5742 5752 5761 5764 5766 5772 5781 5788 5795 5809 5825 5838 5833 5834 5821 5816 5800 5772 5782 5763 5759 5775 5775 5781 5785 5783 5779 5797 5820 5812 5801 5800 5813 5817 5812 5810 5809 5809 5807 5807
5694 5701 5706 5712 5725 5734 5737 5743 5735 5733 5749 5783 5794 5802 5815 5814 5802 5821 5834 5809 5798 5780 5783 5773 5769 5783 5786 5782 5779 5776 5773 5780 5799 5811 5806 5801 5794 5806 5813 5822 5828 5820 5814 5814 5814
5684 5691 5697 5705 5718 5722 5717 5727 5730 5729 5732 5789 5805 5810 5815 5808 5803 5813 5822 5814 5797 5778 5779 5776 5783 5788 5783 5778 5774 5773 5770 5785 5786 5798 5806 5794 5783 5789 5806 5815 5819 5820 5825 5823 5822
5668 5677 5684 5690 5705 5700 5715 5721 5721 5722 5721 5776 5796 5811 5815 5813 5801 5830 5832 5817 5797 5786 5778 5774 5792 5785 5777 5774 5779 5757 5795 5793 5792 5779 5757 5798 5742 5774 5796 5803 5814 5815 5818 5821 5825
5652 5660 5668 5670 5671 5679 5703 5710 5713 5714 5699 5795 5798 5820 5811 5805 5821 5821 5834 5815 5792 5792 5783 5781 5785 5782 5775 5790 5786 5786 5796 5791 5791 5775 5770 5773 5752 5772 5796 5788 5809 5822 5825 5828 5832
5636 5643 5649 5653 5654 5676 5682 5691 5699 5692 5692 5768 5789 5783 5784 5796 5804 5812 5810 5818 5811 5787 5788 5791 5803 5795 5793 5796 5794 5801 5790 5779 5778 5758 5728 5775 5756 5776 5783 5808 5821 5831 5839 5840 5840
5619 5628 5633 5633 5644 5662 5664 5668 5666 5669 5741 5745 5740 5756 5765 5776 5788 5798 5790 5783 5780 5757 5765 5777 5785 5798 5802 5777 5785 5781 5751 5715 5718 5717 5730 5777 5752 5790 5811 5828 5838 5838 5848 5853 5853
5600 5614 5620 5626 5636 5637 5637 5644 5645 5700 5706 5718 5723 5738 5750 5752 5766 5768 5780 5772 5785 5780 5766 5746 5742 5782 5800 5792 5777 5766 5763 5712 5701 5708 5736 5767 5749 5800 5838 5846 5853 5860 5864 5861 5861
5577 5592 5590 5609 5614 5613 5611 5614 5650 5666 5680 5688 5705 5711 5706 5724 5730 5738 5735 5768 5778 5777 5759 5747 5753 5800 5805 5805 5794 5769 5750 5779 5740 5737 5723 5747 5783 5813 5835 5837 5845 5848 5854 5861 5867
5542 5549 5559 5580 5585 5581 5578 5603 5625 5650 5657 5662 5664 5677 5672 5687 5700 5706 5713 5736 5740 5766 5775 5761 5742 5782 5796 5796 5789 5782 5781 5748 5711 5716 5713 5738 5762 5781 5813 5833 5839 5851 5851 5865 5873
5505 5507 5540 5550 5554 5547 5546 5561 5602 5623 5628 5630 5636 5644 5655 5660 5671 5682 5693 5707 5719 5728 5741 5748 5745 5766 5779 5764 5781 5769 5762 5760 5755 5732 5729 5720 5767 5813 5820 5838 5840 5853 5865 5874 5877
5461 5460 5506 5511 5501 5497 5519 5538 5571 5583 5594 5598 5615 5623 5629 5636 5640 5658 5673 5680 5692 5699 5695 5713 5717 5741 5757 5785 5801 5788 5774 5755 5730 5740 5745 5770 5765 5836 5844 5845 5850 5857 5865 5875 5883
5434 5432 5461 5466 5457 5460 5490 5515 5528 5542 5552 5563 5579 5590 5596 5606 5615 5624 5640 5662 5667 5672 5670 5683 5687 5709 5730 5753 5763 5758 5773 5783 5783 5759 5763 5750 5759 5828 5835 5840 5843 5848 5861 5872 5880
5420 5422 5424 5431 5433 5438 5438 5465 5478 5498 5517 5531 5545 5555 5560 5569 5585 5594 5611 5633 5643 5653 5666 5665 5662 5684 5702 5724 5749 5744 5765 5780 5778 5757 5776 5778 5784 5816 5829 5829 5842 5847 5859 5868 5875
5413 5410 5407 5404 5408 5410 5425 5436 5446 5458 5474 5498 5511 5515 5524 5535 5547 5562 5581 5595 5616 5631 5634 5636 5635 5661 5684 5698 5722 5735 5758 5776 5769 5786 5774 5795 5781 5805 5823 5829 5838 5851 5856 5860 5861
5406 5404 5410 5406 5410 5403 5412 5430 5435 5438 5442 5461 5473 5490 5496 5502 5521 5530 5548 5562 5578 5599 5607 5612 5624 5636 5663 5698 5717 5729 5753 5781 5796 5790 5783 5791 5780 5819 5840 5837 5839 5845 5851 5852 5860
5402 5403 5401 5408 5410 5406 5404 5417 5423 5433 5449 5451 5461 5472 5477 5490 5500 5511 5524 5540 5555 5569 5584 5592 5603 5612 5631 5667 5682 5708 5768 5773 5783 5792 5793 5780 5797 5820 5825 5826 5835 5842 5848 5855 5862